Regional Weather Roundup
Issued by NWS San Diego, CA

Home | Current Version | Previous Version | Text Only | Print | Product List | Glossary On
Versions: 1 2 3 4 5 6 7 8 9 10 11 12 13 14 15 16 17 18 19 20 21 22 23 24 25 26 27 28 29 30 31 32 33 34 35 36 37 38 39 40 41 42 43 44 45 46 47 48 49 50
000
ASUS46 KSGX 291111
RWRSGX
SAN DIEGO HOURLY WEATHER ROUNDUP
NATIONAL WEATHER SERVICE SAN DIEGO CA
400 AM PDT SAT APR 29 2017

NOTE: "FAIR" INDICATES FEW OR NO CLOUDS BELOW 12,000 FEET WITH NO
SIGNIFICANT WEATHER AND/OR OBSTRUCTIONS TO VISIBILITY.

CAZ042-043-060-061-PZZ750-775-291200-

GREATER SAN DIEGO AREA

CITY           SKY/WX    TMP DP  RH WIND       PRES   REMARKS
SAN DIEGO AP   PTCLDY    61  52  72 NW3       29.88R
NATIONAL CITY    N/A     58  51  78 CALM      29.87R
CHULA VISTA      N/A     55  50  85 CALM      29.79R
IMPERIAL BEACH CLEAR    N/A N/A N/A E7        29.87R
BROWN FIELD    CLEAR     52  44  74 E6        29.87R
MIRAMAR MCAS   CLEAR     53  38  56 CALM      29.86R
MONTGOMERY FLD CLEAR     57  42  57 CALM      29.87R

$$

NORTH SAN DIEGO COUNTY

CITY           SKY/WX    TMP DP  RH WIND       PRES   REMARKS
CAMP PENDLETON CLEAR     69  17  13 NE16G26   29.86R HAZE
OCEANSIDE AP   CLEAR     49  45  86 NE3       29.86R
OCEANSIDE HBR    N/A     68  24  19 NE6       29.89R
VISTA            N/A     56  36  46 CALM      29.85R
CARLSBAD       CLEAR     58  42  55 E6        29.86R
DEL MAR          N/A     58  48  69 CALM      29.89R
LA JOLLA SCRIP   N/A     60  47  61 N1        29.86R
FALLBROOK        N/A     65  25  21 NW7       29.87R
ESCONDIDO        N/A     55  44  65 CALM      29.89R
SAN MARCOS       N/A     56  41  56 CALM      29.88R
POWAY            N/A     68  23  18 NE3       29.88R

$$

EAST SAN DIEGO COUNTY

CITY           SKY/WX    TMP DP  RH WIND       PRES   REMARKS
RAMONA         CLEAR     63  16  16 NE10G18   29.90R
SANTEE LAKES     N/A     51  43  74 CALM      29.86R
LA MESA          N/A     62  42  47 CALM      29.80R
JAMUL            N/A     51  35  53 CALM      29.87R
DESCANSO N       N/A     55  17  22 NE23      29.84R
MT. LAGUNA OBS   N/A     42  11  27 NE12      29.59R
CAMPO            N/A     58  13  17 NE20G28   29.89R

$$

ORANGE COUNTY AND THE LOS ANGELES BASIN

CITY           SKY/WX    TMP DP  RH WIND       PRES   REMARKS
JOHN WAYNE AP  CLEAR     71  14  11 NE17      29.89R
LAKE FOREST FR   N/A     67  11  11 NE7       29.73R
HUNTINGTON BCH   N/A     71  21  15 NE20      29.91R
LOS ALAMITOS   FAIR      71  14  11 NE22G33   29.90R
FULLERTON      CLEAR     72  13  10 NE15G24   29.91R
LONG BEACH     CLEAR     70   7   8 E12       29.90R
L.A. AP        CLEAR     67  14  13 E3        29.91R
L.A. DOWNTOWN  CLEAR     72  14  11 E6        29.90R

$$

THE INLAND EMPIRE

CITY           SKY/WX    TMP DP  RH WIND       PRES   REMARKS
CORONA         CLEAR     67  16  14 E13G18    29.96R
CHINO          PTCLDY    68  14  12 E15G29    29.93S HAZE
ONTARIO        PTCLDY    65  11  12 NE22G36   29.92F
SAN BERNARDINO FAIR      66  12  12 N16G30    29.98S
RIVERSIDE AP   CLEAR     66  15  14 NE12G22   29.95S
MORENO VALLEY    N/A     61  24  24 NE2       28.10R
MARCH ARB      CLEAR     63  10  12 N10       29.97R
HORSETHIEF CYN   N/A     58  12  16 NW3       29.96R
PERRIS           N/A     63  25  24 S6        29.97R
HEMET EAST       N/A     61   4  10 E3        29.95S
FRENCH VALLEY  FAIR      63  14  15 N12       29.94R
TEMECULA         N/A     60  28  30 NE5       29.97R

$$

SAN BERNARDINO AND RIVERSIDE COUNTY MOUNTAINS

CITY           SKY/WX    TMP DP  RH WIND       PRES   REMARKS
BIG BEAR AP    CLEAR     34   7  32 N15G29    30.06S WCI  24
ANGELUS OAKS     N/A     41  14  32 E1        29.81R
PINE COVE        N/A     42   8  25 CALM      29.88R

$$

SOUTHERN DESERT INCLUDING THE COACHELLA VALLEY

CITY           SKY/WX    TMP DP  RH WIND       PRES   REMARKS
PALM SPRINGS   CLEAR     70  10  10 NW8       30.00R
PALM DESERT      N/A     70  15  12 N1        26.99
THERMAL        CLEAR     69   9   9 NW10      29.94R
BLYTHE         CLEAR     64  17  16 N16       29.91S
IMPERIAL AP    CLEAR     67  22  18 N13       29.91R
EL CENTRO NAS  CLEAR     57  20  23 NW8       29.94R
YUMA AZ        CLEAR     68  17  14 N12       29.88R

$$

UPPER DESERT

CITY           SKY/WX    TMP DP  RH WIND       PRES   REMARKS
VICTORVILLE AP CLEAR     48  10  21 CALM      30.07R
HESPERIA         N/A     53  15  22 N3        30.14R
PALMDALE       CLEAR     45  18  34 E10       30.07S
LANCASTER      CLEAR     47  17  30 E8        30.07S
EDWARDS AFB    CLEAR     51  12  21 NE7       30.05R
DAGGETT        CLEAR     54  14  20 SW3       30.06R
29 PALMS N     CLEAR     57   7  13 NW14G22   30.07S
NEEDLES        CLEAR     63  18  17 N9        29.96R

$$

REGIONAL REPORTS

CITY           SKY/WX    TMP DP  RH WIND       PRES   REMARKS
SANTA BARBARA  CLEAR     54  40  59 CALM      29.93R
SANDBERG       CLEAR     48  13  24 E31G39    30.04F
LAS VEGAS NV   CLEAR     57  17  21 N13       30.02R
PHOENIX AZ     CLEAR     62  15  16 NW9       29.82R
TIJUANA        CLEAR     57  45  62 NW7       29.89R
ENSENADA NW      N/A     62  32  32 NE6       29.83R

$$

OFFSHORE ISLANDS

CITY           SKY/WX    TMP DP  RH WIND       PRES   REMARKS
CATALINA ARPT  CLEAR     65  18  16 E26G41    29.93R
SAN NICOLAS IS CLEAR     61  31  32 N16       29.93R

$$

MARINE AND OFFSHORE BUOY REPORTS

STATION/POSITION SKY/WX   TEMP    WIND        PRES    VSBY  SWELL
                          AIR SEA DIR/SP/G                  HT/PER/DIR
                          (F)     (DEG/KT/KT) (MB)    (MI)  (FT/S/D)
TANNER BANKS               57 56  330/ 17/ 21 1011.5R        10/330/10
S CLEMENTE BASIN           63 63   20/  6/  8 1011.0R         8/290/ 9
SAN NICOLAS IS.               53                N/A           5/300/11
SO. S. ROSA ISLA           53 52  320/ 14/ 21 1014.1R         7/300/10
W. S. BARBARA CH           52 51  330/ 19/ 21 1013.8R         5/290/10
M. S. BARBARA CH                                N/A           5/250/11
S. MONICA BASIN            67 61   40/ 21/ 25 1012.3R         3/260/11
S PEDRO CHANNEL               57                N/A           2/270/11
CMP PENDLETON NS              65                N/A           2/230/13
OCEANSIDE OFFSHR              64                N/A           2/270/11
TORREY PINES OTR              64                N/A           3/280/12
POINT LOMA SOUTH              62                N/A           3/270/13

$$





USA.gov is the U.S. government's official web portal to all federal, state and local government web resources and services.